CDT,Max TemperatureF,Mean TemperatureF,Min TemperatureF,Max Dew PointF,MeanDew PointF,Min DewpointF,Max Humidity, Mean Humidity, Min Humidity, Max Sea Level PressureIn, Mean Sea Level PressureIn, Min Sea Level PressureIn, Max VisibilityMiles, Mean VisibilityMiles, Min VisibilityMiles, Max Wind SpeedMPH, Mean Wind SpeedMPH, Max Gust SpeedMPH,PrecipitationIn, CloudCover, Events, WindDirDegrees
2013-3-1,62,45,28,26,22,13,69,44,18,30.33,30.25,30.18,10,10,10,49,10,122,0.00,1,,346
2013-3-2,66,48,30,29,27,23,85,55,24,30.45,30.33,30.19,10,10,10,14,7,17,0.00,0,,304
2013-3-3,80,64,47,27,22,17,49,30,10,30.17,29.90,29.69,10,10,10,30,18,37,0.00,0,,202
2013-3-4,86,68,50,41,25,14,43,27,10,29.96,29.69,29.57,10,10,10,29,15,46,0.00,0,,225
2013-3-5,56,44,31,32,17,6,70,42,14,30.40,30.32,30.11,10,10,10,38,16,52,0.00,0,,11
2013-3-6,63,44,25,17,12,9,57,35,12,30.42,30.28,30.07,10,10,10,21,10,28,0.00,0,,153
2013-3-7,73,60,47,46,30,10,57,39,20,30.10,30.03,29.96,10,10,10,25,16,35,0.00,0,,177
2013-3-8,66,62,57,59,56,49,90,79,67,30.05,29.95,29.81,10,10,10,30,18,41,0.00,6,,161
2013-3-9,78,69,60,58,48,26,84,53,21,29.82,29.70,29.59,10,10,10,30,17,40,T,4,Rain,230
2013-3-10,62,49,36,28,22,15,53,37,20,30.12,29.98,29.76,10,10,10,33,18,49,T,2,,324
2013-3-11,70,49,27,22,17,11,63,39,14,30.15,30.06,29.95,10,10,10,17,7,25,0.00,0,,278
2013-3-12,70,57,43,28,24,18,39,30,21,30.32,30.07,29.92,10,10,10,22,11,28,0.00,0,,1
2013-3-13,72,52,31,33,28,23,69,45,20,30.40,30.33,30.23,10,10,10,18,8,24,0.00,0,,139
2013-3-14,80,65,50,43,37,34,56,38,20,30.25,30.17,30.09,10,10,10,25,13,32,0.00,0,,177
2013-3-15,85,71,57,48,40,35,57,37,17,30.10,29.96,29.79,10,10,10,29,16,43,0.00,0,,196
2013-3-16,90,74,58,49,41,30,67,40,12,29.78,29.68,29.55,10,10,10,26,16,36,0.00,0,,201
2013-3-17,71,58,44,48,39,35,71,52,33,29.83,29.73,29.66,10,10,10,17,8,22,0.00,0,,358
2013-3-18,69,58,47,44,39,35,59,46,32,29.96,29.83,29.64,10,10,10,30,10,38,0.00,0,,4
2013-3-19,73,60,46,44,41,35,77,56,35,30.11,29.95,29.88,10,10,10,21,11,25,0.00,0,,98
2013-3-20,69,55,40,33,28,21,70,43,16,30.29,30.15,29.95,10,10,7,17,9,23,0.00,0,,76
2013-3-21,85,69,53,52,40,30,56,35,14,29.92,29.63,29.42,10,10,10,29,18,39,0.00,0,,195
2013-3-22,68,56,44,52,41,37,83,61,39,29.83,29.72,29.49,10,10,8,21,12,26,0.00,6,,14
2013-3-23,68,56,43,51,45,39,100,76,52,29.90,29.74,29.56,10,8,2,38,9,48,0.56,6,Rain-Thunderstorm,44
2013-3-24,52,41,30,43,22,12,76,49,21,30.22,30.11,29.94,10,10,10,31,15,40,0.00,1,,353
2013-3-25,54,41,28,19,16,13,63,41,19,30.39,30.31,30.21,10,10,10,13,7,20,0.00,0,,39
2013-3-26,63,46,29,19,17,14,63,39,14,30.43,30.32,30.17,10,10,10,21,10,26,0.00,0,,165
2013-3-27,75,60,45,44,33,17,55,41,27,30.16,30.07,29.98,10,10,10,28,20,37,0.00,0,,175
2013-3-28,79,64,48,54,49,43,86,63,39,30.09,30.02,29.96,10,10,10,25,14,35,0.00,0,,165
2013-3-29,78,69,60,58,56,54,84,65,45,30.09,30.01,29.92,10,10,9,24,13,31,0.05,2,Rain-Thunderstorm,180
2013-3-30,88,72,56,59,54,41,93,57,20,30.02,29.90,29.78,10,10,10,20,10,28,0.00,2,Rain,176
2013-3-31,79,68,56,58,51,45,73,53,32,30.04,29.90,29.76,10,10,10,22,11,33,0.00,1,,38